Weather History for KCZZ - November, 2013

Change the Weather History Date:

Friday, November 1, 2013

  Actual Average Record
Temperature  
Mean Temperature 58 °F 57 °F  
Max Temperature 74 °F 75 °F 89 °F (1960)
Min Temperature 42 °F 39 °F 27 °F (1979)
Degree Days  
Heating Degree Days 7 8  
Month to date heating degree days 7 8  
Since 1 July heating degree days 290 218  
Cooling Degree Days 0 0  
Month to date cooling degree days 0 0  
Year to date cooling degree days 909 839  
Growing Degree Days 9 (Base 50)    
Moisture  
Dew Point 24 °F    
Average Humidity 30    
Maximum Humidity 45    
Minimum Humidity 15    
Precipitation  
Precipitation 0.00 in 0.03 in 0.44 in (1987)
Month to date precipitation 0.00 0.03  
Year to date precipitation 7.62 12.36  
Since 1 July precipitation 2.84 2.21  
Snow  
Snow 0.00 in - - ()
Month to date snowfall 0.0  
Year to date snowfall 0.0  
Since 1 July snowfall 0.0  
Snow Depth 0.00 in    
Sea Level Pressure  
Sea Level Pressure 30.00 in    
Wind  
Wind Speed 12 mph (ENE)    
Max Wind Speed 29 mph    
Max Gust Speed 33 mph    
T = Trace of Precipitation, MM = Missing Value Source: NWS Daily Summary

Daily Weather History Graph

Daily Weather History Graph

Search for Another Location

Airport or City:

Trip Planner

Search our weather history database for the weather conditions in past years. The results will help you decide how hot, cold, wet, or windy it might be!

Date:

Astronomy

Nov. 01, 2013 Rise Set
Actual Time 7:03 AM PDT 5:54 PM PDT
Civil Twilight 6:38 AM PDT 6:20 PM PDT
Nautical Twilight 6:09 AM PDT 6:49 PM PDT
Astronomical Twilight 5:40 AM PDT 7:18 PM PDT
Moon 5:06 AM PDT (11/1) 4:46 PM PDT (11/1)
Length of Visible Light 11h 42m
Length of Day
10h 51m
Waning Crescent, 4% of the Moon is Illuminated
Nov 1
Waning Crescent
Nov 3
New
Nov 9
First Quarter
Nov 17
Full
Nov 25
Last Quarter

Hourly Weather History & Observations

Time (PDT) Temp. Dew Point Humidity Pressure Visibility Wind Dir Wind Speed Gust Speed Precip Events Conditions
12:52 AM 46.9 °F 26.1 °F 44% 30.01 in - NNE 3.5 mph - N/A   Unknown
1:52 AM 46.0 °F 26.1 °F 46% 30.02 in - Calm Calm - N/A   Unknown
2:52 AM 45.0 °F 25.0 °F 46% 30.01 in - Calm Calm - N/A   Unknown
3:52 AM 46.9 °F 25.0 °F 42% 30.01 in - East 3.5 mph - N/A   Unknown
4:52 AM 57.9 °F 21.0 °F 24% 30.00 in - NE 6.9 mph - N/A   Unknown
5:52 AM 57.0 °F 21.9 °F 26% 30.02 in - ENE 5.8 mph - N/A   Unknown
6:52 AM 57.0 °F 21.9 °F 26% 30.04 in - Variable 3.5 mph - N/A   Unknown
7:52 AM 57.9 °F 25.0 °F 28% 30.04 in - Calm Calm - N/A   Unknown
8:52 AM 66.9 °F 24.1 °F 20% 30.04 in - ENE 20.7 mph 25.3 mph N/A   Unknown
9:52 AM 69.1 °F 24.1 °F 18% 30.04 in - NE 24.2 mph 33.4 mph N/A   Unknown
10:52 AM 71.1 °F 23.0 °F 16% 30.04 in - ENE 24.2 mph 29.9 mph N/A   Unknown
11:52 AM 73.0 °F 23.0 °F 15% 30.04 in - NE 17.3 mph 26.5 mph N/A   Unknown
12:52 PM 73.0 °F 23.0 °F 15% 30.00 in - NE 21.9 mph - N/A   Unknown
1:52 PM 73.0 °F 23.0 °F 15% 29.98 in - ENE 21.9 mph 28.8 mph N/A   Unknown
2:52 PM 73.0 °F 23.0 °F 15% 29.97 in - NE 20.7 mph 28.8 mph N/A   Unknown
3:52 PM 72.0 °F 21.9 °F 15% 29.95 in - ENE 16.1 mph 28.8 mph N/A   Unknown
4:52 PM 69.1 °F 21.9 °F 17% 29.94 in - ENE 18.4 mph 29.9 mph N/A   Unknown
5:52 PM 66.0 °F 23.0 °F 20% 29.95 in - ENE 16.1 mph 23.0 mph N/A   Unknown
6:52 PM 62.1 °F 24.1 °F 23% 29.96 in - NE 13.8 mph - N/A   Unknown
7:52 PM 59.0 °F 25.0 °F 27% 29.99 in - Calm Calm - N/A   Unknown
8:52 PM 55.9 °F 25.0 °F 30% 29.98 in - NE 4.6 mph - N/A   Unknown
9:52 PM 51.1 °F 26.1 °F 38% 29.99 in - NE 8.1 mph - N/A   Unknown
10:52 PM 46.9 °F 27.0 °F 46% 30.01 in - ENE 5.8 mph - N/A   Unknown
11:52 PM 46.9 °F 27.0 °F 46% 30.01 in - East 5.8 mph - N/A   Unknown